Showing default

SINOD-D 1, 40974

Orbit data source: Space-Track

SINOD-D 1, 40974 is a payload satellite owned by SRI (US) in LEO that was launched on Thu, 08 Oct 2015 UTC via an ATLAS V 401 launch vehicle from the Air Force Western Test Range (AFWTR). Payload-class satellites include a variety of spacecraft equipped with specific instruments for various scientific and technological missions. These include communications satellites like Starlink; space stations such as the ISS; scientific satellites like the Hubble; Earth observation satellites from companies like Planet Labs, Umbra, and HawkEye 360; GPS; miniature CubeSats for education and research; and military/defense satellites.

Loading next visibility...
Identifier
40974, 2015-058L
Orbit
LEO
Country
Flag of USUS
Related business
Manufacturer
SRI
Mission
Operational Commercial Technology
Bus & Motor
CUBESAT 2U, Unknown motor
Mass
2 kg wet, 2 kg dry
Launch date (UTC)
2015-10-08 (10 years ago)
Launch vehicle
ATLAS V 401
Launch site
Air Force Western Test Range (AFWTR)
Object type
Payload
Rocket body
Debris
Shape & HBR
Box, 0.1 m
Radar Cross Section
0.025 m², Small (<0.1 m²)

Expand to show TLE details & history
Last TLE update: 17 hours ago

TLE from 17 hours ago
0 SINOD-D 1
1 40974U 15058L   26036.97043448  .00019588  00000-0  10308-2 0  9994
2 40974  64.7585 236.8508 0081586 105.9238 255.0894 15.12821609 95742
Epoch: 2026-02-05T23:17Z
TLE epoch observation values (Epoch: 2026-02-05T23:17:25.539Z)
Latitude
-0.00003°
Longitude
111.37935°
Altitude
544.552 km
Speed
7.582 km/s
True Right ascension
15h 47m 24s
True Declination
0° 00' 00"
Sunlit
Object was in daylight at epoch
Visualization orbit readout
Latitude
Unknown
Longitude
Unknown
Altitude
Unknown
Speed
Unknown
Apparent Right ascension
Unknown
Apparent Declination
Unknown
Sunlit
N/A
Visualization observer readout
Local Sidereal Time
18:09:03
Azimuth
Unknown
Elevation
Unknown
Doppler factor
Unknown
Orbital elements
Apogee altitude
582.484 km
Perigee altitude
469.826 km
Semi-major axis
6,904.292 km
Eccentricity
0.00816
Inclination
64.7585°
RAAN
236.8508°
Arg. of periapsis
105.9238°
True anomaly
254.18837°
Mean anomaly
255.0894°
Eccentric anomaly
254.63865°
Mean motion
3.78324 °/min
Orbital period
95.16 mins
BSTAR
0.0010308
Loading maneuver chart data...
Computing Atmospheric mass density...
Loading historical data...
Loading historical data...
Loading historical data...
Loading historical data...
Loading historical data...
Loading historical data...
Loading historical data...

Documentation

Showing up to 5 results
|